User: anonymous
Location: Caltech
(34.1382°N, 118.1253°W)
Time: 04:06:40
(UTC-07:00)
Language:

Cosmos 1980 Rocket - Orbit

View from above orbital plane
View from above orbital plane
View from above satellite
View from above satellite

Ground track
Ground track

The orbit data is extracted from the following two-line orbital elements,

1 19650U 88102B   14210.75997336  .00000215  00000-0  13402-3 0  3419
2 19650 070.9997 070.0250 0015069 338.3675 139.0120 14.15666189326907
Epoch (UTC): 29 July 2014 18:14:21
Eccentricity: 0.0015069
inclination: 70.9997°
perigee height: 829 km
apogee height: 851 km
right ascension of ascending node: 70.0250°
argument of perigee: 338.3675°
revolutions per day: 14.15666189
mean anomaly at epoch: 139.0120°
orbit number at epoch: 32690

The dashed part of the orbit path shows where the satellite is in the earth's shadow,  

DLR